Home > Weather > Aklavik > Past weeks

Flag for Canada Past Weather in Aklavik, Northwest Territories, Canada — Yesterday and Last 2 Weeks

Now
55 °F

Passing clouds.


Feels Like: 54 °F
Forecast: 52 / 67 °F
Wind: 7 mph from Northwest

Location: Inuvik

Current Time: Jul 29, 2016 at 6:04:03 AM

Latest Report: Jul 29, 2016 at 5:00 AM


Visibility: 15 mi

Pressure: 29.70 "Hg

Humidity: 88%

Dew Point: 52 °F

Location of AklavikLocation

Past Weather in Aklavik — Graph

°F

Aklavik Temperature Yesterday

Maximum temperature yesterday: 81 °F (at 4:00 PM)
Minimum temperature yesterday: 61 °F (at 2:00 AM)
Average temperature yesterday: 71 °F

High & Low Weather Summary for the Past Weeks

 TemperatureHumidityPressure
High86 °F (Jul 15, 5:00 PM)100% (Jul 19, 5:00 AM)30.20 "Hg (Jul 19, 5:00 AM)
Low32 °F (Jul 20, 7:54 AM)27% (Jul 15, 5:00 PM)29.62 "Hg (Jul 28, 8:00 PM)
Average53 °F74%29.90 "Hg
* Reported Jul 14 5:00 AM — Jul 29 5:00 AM, Aklavik, Weather by CustomWeather, © 2016

Note: Actual official high and low records may vary slightly from our data, if they occured in-between our weather recording intervals... More about our weather records

Advertising

Aklavik Weather History for the Previous 24 Hours

Scroll right to see more
 ConditionsComfort  
Time TempWeatherWind HumidityBarometerVisibility
5:00 AM
Fri, Jul 29
55 °FPassing clouds.7 mph88%29.70 "Hg15 mi
4:00 AM55 °FPartly sunny.7 mph88%29.68 "Hg15 mi
3:00 AM59 °FScattered clouds.6 mph77%29.67 "Hg15 mi
2:00 AM66 °FBroken clouds.5 mph60%29.65 "Hg15 mi
1:00 AM68 °FPartly sunny.3 mph56%29.64 "Hg15 mi
12:00 AM72 °FPartly sunny.2 mph53%29.63 "Hg15 mi
11:00 PM
Thu, Jul 28
72 °FScattered showers. Partly sunny.2 mph50%29.62 "Hg15 mi
10:00 PM75 °FScattered showers. Broken clouds.5 mph41%29.63 "Hg15 mi
9:00 PM77 °FScattered showers. Partly sunny.12 mph39%29.62 "Hg15 mi
8:00 PM81 °FScattered showers. Scattered clouds.9 mph34%29.62 "Hg15 mi
7:00 PM81 °FScattered showers. Scattered clouds.13 mph30%29.63 "Hg15 mi
6:00 PM81 °FScattered showers. Scattered clouds.12 mph32%29.64 "Hg15 mi
5:00 PM81 °FScattered clouds.14 mph34%29.65 "Hg15 mi
4:00 PM81 °FPassing clouds.10 mph30%29.67 "Hg15 mi
3:00 PM79 °FPassing clouds.6 mph34%29.68 "Hg15 mi
2:00 PM77 °FPassing clouds.7 mph39%29.70 "Hg15 mi
1:00 PM75 °FPassing clouds.6 mph44%29.71 "Hg15 mi
12:00 PM73 °FPassing clouds.12 mph50%29.72 "Hg15 mi
11:00 AM70 °FPassing clouds.7 mph57%29.72 "Hg15 mi
10:00 AM68 °FPassing clouds.8 mph60%29.72 "Hg15 mi
9:00 AM64 °FPassing clouds.5 mph64%29.72 "Hg15 mi
8:00 AM63 °FPassing clouds.2 mph68%29.73 "Hg15 mi
7:00 AM63 °FPassing clouds.5 mph68%29.74 "Hg15 mi
6:00 AM63 °FPassing clouds.5 mph73%29.74 "Hg15 mi
Weather by CustomWeather, © 2016

See weather overviewHow to use our weather pages